TimeCDT,TemperatureF,Dew PointF,Humidity,Sea Level PressureIn,VisibilityMPH,Wind Direction,Wind SpeedMPH,Gust SpeedMPH,PrecipitationIn,Events,Conditions,WindDirDegrees,DateUTC
12:15 AM,44.6,41.4,88,29.79,10.0,WSW,3.5,-,N/A,,Clear,240,2013-10-07 05:15:00
12:35 AM,44.2,41.5,90,29.79,10.0,West,3.5,-,N/A,,Scattered Clouds,270,2013-10-07 05:35:00
12:55 AM,44.8,41.9,90,29.81,10.0,West,6.9,-,N/A,,Mostly Cloudy,260,2013-10-07 05:55:00
1:15 AM,44.6,41.4,88,29.82,10.0,West,3.5,-,N/A,,Scattered Clouds,270,2013-10-07 06:15:00
1:35 AM,44.8,41.5,88,29.82,10.0,West,5.8,-,N/A,,Clear,260,2013-10-07 06:35:00
1:55 AM,44.8,41.5,88,29.81,10.0,West,4.6,-,N/A,,Clear,270,2013-10-07 06:55:00
2:15 AM,44.6,41.9,90,29.82,10.0,West,5.8,-,N/A,,Scattered Clouds,280,2013-10-07 07:15:00
2:35 AM,44.6,41.5,89,29.82,10.0,WSW,3.5,-,N/A,,Scattered Clouds,250,2013-10-07 07:35:00
2:55 AM,45.0,42.1,90,29.81,10.0,WSW,6.9,-,N/A,,Scattered Clouds,240,2013-10-07 07:55:00
3:15 AM,45.7,42.8,90,29.82,10.0,West,6.9,-,N/A,,Overcast,260,2013-10-07 08:15:00
3:35 AM,46.2,43.5,90,29.82,10.0,West,4.6,-,N/A,,Overcast,260,2013-10-07 08:35:00
3:55 AM,46.8,44.1,90,29.82,10.0,West,5.8,-,N/A,,Overcast,270,2013-10-07 08:55:00
4:15 AM,47.8,45.0,90,29.83,10.0,West,6.9,-,N/A,,Overcast,270,2013-10-07 09:15:00
4:35 AM,48.6,45.7,90,29.83,10.0,West,4.6,-,N/A,,Overcast,270,2013-10-07 09:35:00
4:55 AM,49.1,46.0,89,29.83,10.0,WSW,4.6,-,N/A,,Overcast,250,2013-10-07 09:55:00
5:15 AM,49.5,46.4,89,29.84,10.0,West,4.6,-,N/A,,Overcast,270,2013-10-07 10:15:00
5:35 AM,50.2,46.9,89,29.85,10.0,WNW,6.9,-,N/A,,Overcast,300,2013-10-07 10:35:00
5:55 AM,49.5,46.4,89,29.86,10.0,NW,5.8,-,N/A,,Mostly Cloudy,310,2013-10-07 10:55:00
6:15 AM,50.0,46.4,87,29.88,10.0,West,6.9,-,N/A,,Scattered Clouds,280,2013-10-07 11:15:00
6:35 AM,49.6,45.9,87,29.88,10.0,West,5.8,-,N/A,,Clear,280,2013-10-07 11:35:00
6:55 AM,49.3,45.5,87,29.89,10.0,WNW,6.9,-,N/A,,Clear,290,2013-10-07 11:55:00
7:15 AM,49.1,45.1,86,29.90,10.0,West,3.5,-,N/A,,Clear,260,2013-10-07 12:15:00
7:35 AM,48.6,44.6,86,29.91,10.0,West,5.8,-,N/A,,Clear,260,2013-10-07 12:35:00
7:55 AM,48.7,44.8,86,29.92,10.0,West,6.9,-,N/A,,Clear,270,2013-10-07 12:55:00
8:15 AM,49.1,45.0,86,29.93,10.0,West,8.1,-,N/A,,Clear,280,2013-10-07 13:15:00
8:35 AM,50.4,45.5,83,29.94,10.0,WNW,11.5,-,N/A,,Clear,300,2013-10-07 13:35:00
8:55 AM,50.9,45.9,83,29.95,10.0,WNW,8.1,-,N/A,,Clear,290,2013-10-07 13:55:00
9:15 AM,52.0,45.7,79,29.96,10.0,WNW,6.9,-,N/A,,Clear,290,2013-10-07 14:15:00
9:35 AM,53.4,46.2,77,29.96,10.0,West,8.1,-,N/A,,Clear,280,2013-10-07 14:35:00
9:55 AM,54.3,46.2,74,29.96,10.0,West,5.8,-,N/A,,Clear,270,2013-10-07 14:55:00
10:15 AM,55.4,46.4,72,29.97,10.0,WNW,4.6,-,N/A,,Clear,300,2013-10-07 15:15:00
10:35 AM,56.7,46.0,68,29.97,10.0,WSW,4.6,-,N/A,,Clear,240,2013-10-07 15:35:00
10:55 AM,58.6,46.2,63,29.98,10.0,WSW,3.5,-,N/A,,Clear,240,2013-10-07 15:55:00
11:15 AM,59.2,45.7,61,29.98,10.0,SW,3.5,-,N/A,,Clear,230,2013-10-07 16:15:00
11:35 AM,60.3,46.0,59,29.98,10.0,Calm,Calm,-,N/A,,Clear,0,2013-10-07 16:35:00
11:55 AM,61.9,46.0,56,29.98,10.0,WSW,3.5,-,N/A,,Clear,250,2013-10-07 16:55:00
12:15 PM,63.5,45.0,51,29.98,10.0,SW,3.5,-,N/A,,Clear,230,2013-10-07 17:15:00
12:35 PM,65.1,44.8,48,29.97,10.0,WSW,3.5,-,N/A,,Clear,250,2013-10-07 17:35:00
12:55 PM,66.7,44.1,44,29.97,10.0,West,5.8,-,N/A,,Clear,260,2013-10-07 17:55:00
1:15 PM,68.5,41.9,38,29.97,10.0,West,9.2,17.3,N/A,,Clear,270,2013-10-07 18:15:00
1:35 PM,69.3,43.0,39,29.96,10.0,WSW,9.2,-,N/A,,Clear,240,2013-10-07 18:35:00
1:55 PM,70.0,39.9,33,29.96,10.0,West,13.8,19.6,N/A,,Clear,270,2013-10-07 18:55:00
2:15 PM,70.7,41.0,34,29.95,10.0,West,13.8,17.3,N/A,,Clear,260,2013-10-07 19:15:00
2:35 PM,71.6,40.8,33,29.96,10.0,West,11.5,17.3,N/A,,Clear,280,2013-10-07 19:35:00
2:55 PM,71.8,39.9,31,29.96,10.0,West,13.8,17.3,N/A,,Clear,270,2013-10-07 19:55:00
3:15 PM,71.8,39.7,31,29.96,10.0,West,13.8,-,N/A,,Clear,270,2013-10-07 20:15:00
3:35 PM,72.1,41.2,33,29.96,10.0,West,10.4,-,N/A,,Clear,260,2013-10-07 20:35:00
3:55 PM,72.5,41.0,32,29.95,10.0,West,10.4,-,N/A,,Clear,270,2013-10-07 20:55:00
4:15 PM,72.5,40.1,31,29.95,10.0,WNW,10.4,-,N/A,,Clear,290,2013-10-07 21:15:00
4:35 PM,72.7,39.9,31,29.96,10.0,West,13.8,-,N/A,,Clear,270,2013-10-07 21:35:00
4:55 PM,72.5,40.3,31,29.96,10.0,West,6.9,-,N/A,,Clear,280,2013-10-07 21:55:00
5:15 PM,72.1,40.5,32,29.96,10.0,WNW,9.2,-,N/A,,Clear,290,2013-10-07 22:15:00
5:35 PM,71.2,41.7,34,29.96,10.0,NW,9.2,-,N/A,,Clear,310,2013-10-07 22:35:00
5:55 PM,69.6,43.2,38,29.97,10.0,NW,5.8,-,N/A,,Clear,310,2013-10-07 22:55:00
6:15 PM,68.2,43.0,40,29.98,10.0,WNW,5.8,-,N/A,,Clear,300,2013-10-07 23:15:00
6:35 PM,64.8,44.2,47,29.98,10.0,NW,6.9,-,N/A,,Clear,320,2013-10-07 23:35:00
6:55 PM,63.7,44.2,49,29.99,10.0,NW,4.6,-,N/A,,Clear,320,2013-10-07 23:55:00
7:15 PM,63.7,44.6,50,29.99,10.0,Calm,Calm,-,N/A,,Clear,0,2013-10-08 00:15:00
7:35 PM,60.6,44.6,56,30.01,10.0,Calm,Calm,-,N/A,,Clear,0,2013-10-08 00:35:00
7:55 PM,59.0,46.8,64,30.01,10.0,Calm,Calm,-,N/A,,Clear,0,2013-10-08 00:55:00
8:15 PM,56.3,46.9,71,30.02,7.0,Calm,Calm,-,N/A,,Clear,0,2013-10-08 01:15:00
8:35 PM,53.4,46.6,78,30.02,7.0,North,3.5,-,N/A,,Clear,10,2013-10-08 01:35:00
8:55 PM,53.1,47.8,82,30.03,1.8,Calm,Calm,-,N/A,,Haze,0,2013-10-08 01:55:00
9:15 PM,53.6,48.2,82,30.04,5.0,Calm,Calm,-,N/A,,Haze,0,2013-10-08 02:15:00
9:35 PM,53.8,47.5,79,30.05,10.0,Calm,Calm,-,N/A,,Clear,0,2013-10-08 02:35:00
9:55 PM,53.2,47.1,80,30.05,10.0,Calm,Calm,-,N/A,,Clear,0,2013-10-08 02:55:00
10:15 PM,50.9,46.8,86,30.06,10.0,Calm,Calm,-,N/A,,Clear,0,2013-10-08 03:15:00
10:35 PM,47.3,44.8,91,30.07,10.0,NE,3.5,-,N/A,,Clear,40,2013-10-08 03:35:00
10:55 PM,48.7,46.0,90,30.07,10.0,NNE,3.5,-,N/A,,Clear,20,2013-10-08 03:55:00
11:15 PM,49.3,47.1,92,30.07,10.0,Calm,Calm,-,N/A,,Clear,0,2013-10-08 04:15:00
11:35 PM,50.9,47.7,89,30.08,10.0,Calm,Calm,-,N/A,,Clear,0,2013-10-08 04:35:00
11:55 PM,47.7,44.6,89,30.09,10.0,Calm,Calm,-,N/A,,Clear,0,2013-10-08 04:55:00